DECAYED

STARLINK-2005, 47600 (Decayed)

Orbit data source: Space-Track

STARLINK-2005, 47600 was a payload satellite owned by SpaceX/Seattle (US) in LEO that was launched on Thu, 04 Feb 2021 UTC via an FALCON 9 launch vehicle from the Air Force Eastern Test Range (AFETR). Payload-class satellites include a variety of spacecraft equipped with specific instruments for various scientific and technological missions. These include communications satellites like Starlink; space stations such as the ISS; scientific satellites like the Hubble; Earth observation satellites from companies like Planet Labs, Umbra, and HawkEye 360; GPS; miniature CubeSats for education and research; and military/defense satellites.

Not visible in the next 10 days
Identifier
47600, 2021-009BE
Orbit
Decayed
Country
Flag of USUS
Related business
Manufacturer
SpaceX/Seattle
Mission
Decayed Commercial Communications
Bus & Motor
STARLINK, Unknown motor
Mass
260 kg wet, ~248 kg dry
Launch date (UTC)
2021-02-04 (5 years ago)
Launch vehicle
FALCON 9
Launch site
Air Force Eastern Test Range (AFETR)
Object type
Payload
Rocket body
Debris
Shape & HBR
Box + 1 Pan, 10.1 m
Radar Cross Section
13.562 m², Large (>1 m²)

Expand to show TLE details & history
Last TLE update: 1 year ago

TLE from 1 year ago
0 STARLINK-2005
1 47600U 21009BE  25074.23292738  .35369686  12684-4  38547-3 0  9994
2 47600  53.0212 124.8610 0003224 313.9277 161.3685 16.50298686228213
Epoch: 2025-03-15T05:35Z
TLE epoch observation values (Epoch: 2025-03-15T05:35:24.925Z)
Latitude
46.386°
Longitude
-3.86454°
Altitude
145.481 km
Speed
7.824 km/s
True Right ascension
16h 52m 16s
True Declination
46° 11' 53"
Sunlit
Object was in daylight at epoch
Visualization orbit readout
Latitude
Unknown
Longitude
Unknown
Altitude
Unknown
Speed
Unknown
Apparent Right ascension
Unknown
Apparent Declination
Unknown
Sunlit
N/A
Visualization observer readout
Local Sidereal Time
23:07:22
Azimuth
Unknown
Elevation
Unknown
Doppler factor
Unknown
Orbital elements
Apogee altitude
140.943 km
Perigee altitude
136.741 km
Semi-major axis
6,516.979 km
Eccentricity
0.00032
Inclination
53.0212°
RAAN
124.861°
Arg. of periapsis
313.9277°
True anomaly
161.3803°
Mean anomaly
161.3685°
Eccentric anomaly
161.3744°
Mean motion
4.12547 °/min
Orbital period
87.26 mins
BSTAR
0.00038547
Loading maneuver chart data...
Computing Atmospheric mass density...

Documentation

Showing up to 5 results
|